Flag for Austria Weather past 2 weeks in Eferding, Upper Austria, Austria

Now
58 °F

Overcast.


Feels Like: 59 °F
Forecast: 52 / 58 °F
Wind: 3 mph from Northeast

Location: Linz / Hoersching-Flughafen

Current Time: May 22, 2015 at 11:35:49 AM

Latest Report: May 22, 2015 at 11:00 AM


Visibility: 25 mi

Pressure: 30.23 "Hg

Humidity: 60%

Dew point: 44 °F

Location of EferdingLocation

Historic Weather in Eferding — Graph

°F

Eferding temperature yesterday

Maximum temperature yesterday: 51 °F (at 5:00 PM)
Minimum temperature yesterday: 45 °F (at 6:00 AM)
Average temperature yesterday: 48 °F

Past Weeks' High & Low Weather Summary

 TemperatureHumidityPressure
High76 °F (May 12, 5:00 PM)97% (May 18, 3:00 AM)30.41 "Hg (May 18, 3:00 AM)
Low44 °F (May 11, 5:00 AM)26% (May 11, 3:00 PM)29.71 "Hg (May 18, 8:00 PM)
Average58 °F74%30.07 "Hg
* Reported May 7 10:00 AM — May 22 10:00 AM, Eferding, Weather by CustomWeather, © 2015

Note: Actual official high and low records may vary slightly from our data, if they occured in-between our weather recording intervals... More about our weather records

Advertising

Eferding weather history for previous 24 hours

 ConditionsComfort  
Time TempWeatherWind HumidityBarometerVisibility
10:00 AM
Fri, May 22
55 °FOvercast.N/A72%30.26 "Hg14 mi
9:00 AM52 °FOvercast.N/A81%30.27 "Hg10 mi
8:00 AM51 °FOvercast.N/A85%30.27 "Hg9 mi
7:00 AM50 °FLow clouds.N/A93%30.27 "Hg6 mi
6:00 AM49 °FLow clouds.N/A96%30.27 "Hg2 mi
5:00 AM49 °FLow clouds.N/A96%30.27 "Hg3 mi
4:00 AM49 °FLow clouds.N/A95%30.28 "Hg4 mi
3:00 AM49 °FOvercast.N/A96%30.28 "Hg3 mi
2:00 AM49 °FOvercast.N/A95%30.28 "Hg4 mi
1:00 AM50 °FOvercast.N/A93%30.28 "Hg6 mi
12:00 AM50 °FOvercast.3 mph95%30.28 "Hg4 mi
11:00 PM
Thu, May 21
50 °FLight rain. Low clouds.N/A95%30.27 "Hg4 mi
10:00 PM50 °FLight rain. Low clouds.N/A94%30.28 "Hg4 mi
9:00 PM50 °FLow clouds.N/A93%30.25 "Hg4 mi
8:00 PM50 °FLight rain. Low clouds.3 mph93%30.24 "Hg4 mi
7:00 PM51 °FLight rain. Low clouds.N/A91%30.23 "Hg5 mi
6:00 PM51 °FLight rain. Low clouds.N/A93%30.22 "Hg4 mi
5:00 PM51 °FLow clouds.5 mph91%30.20 "Hg7 mi
4:00 PM51 °FRain showers. Low clouds.5 mph88%30.20 "Hg6 mi
3:00 PM51 °FDrizzle. Low clouds.3 mph90%30.20 "Hg6 mi
2:00 PM50 °FLight rain. Low clouds.N/A93%30.20 "Hg4 mi
1:00 PM50 °FLow clouds.3 mph90%30.20 "Hg10 mi
12:00 PM49 °FLow clouds.3 mph92%30.20 "Hg11 mi
11:00 AM48 °FLight rain. Low clouds.N/A92%30.19 "Hg4 mi
Weather by CustomWeather, © 2015

See weather overviewHow to use our weather pages